Weather History for Cordova, AK

Change the Weather History Date:

Wednesday, January 1, 2014

  Actual Average Record
Temperature  
Mean Temperature 36 °F -  
Max Temperature 39 °F 31 °F 46 °F (1987)
Min Temperature 34 °F 16 °F -16 °F (1980)
Degree Days  
Heating Degree Days 28    
Moisture  
Dew Point 33 °F    
Average Humidity 87    
Maximum Humidity 93    
Minimum Humidity 81    
Precipitation  
Precipitation 0.90 in - - ()
Snow  
Snow 0.00 in - - ()
Snow Depth 6.00 in    
Sea Level Pressure  
Sea Level Pressure 29.46 in    
Wind  
Wind Speed 10 mph (ESE)    
Max Wind Speed 17 mph    
Max Gust Speed 30 mph    
Visibility 8 miles    
Events Rain , Snow    
Averages and records for this station are not official NWS values.
T = Trace of Precipitation, MM = Missing Value Source: NWS Daily Summary

Daily Weather History Graph

Daily Weather History Graph

Search for Another Location

Airport:

Trip Planner

Search our weather history database for the weather conditions in past years. The results will help you decide how hot, cold, wet, or windy it might be!

Date:

Astronomy

Jan. 01, 2014 Rise Set
Actual Time 9:48 AM AKST 3:42 PM AKST
Civil Twilight 8:50 AM AKST 4:41 PM AKST
Nautical Twilight 7:52 AM AKST 5:38 PM AKST
Astronomical Twilight 7:00 AM AKST 6:30 PM AKST
Moon 9:22 AM AKST (1/1) 5:07 PM AKST (1/1)
Length of Visible Light 7h 50m
Length of Day
5h 54m
New Moon, 0% of the Moon is Illuminated
Jan 1
New Moon
Jan 7
First Quarter
Jan 15
Full
Jan 23
Last Quarter
Jan 30
New

Hourly Weather History & Observations

Time (AKST) Temp. Windchill Dew Point Humidity Pressure Visibility Wind Dir Wind Speed Gust Speed Precip Events Conditions
12:53 AM 39.0 °F 30.3 °F 34.0 °F 82% 29.46 in 7.0 mi ESE 16.1 mph 29.9 mph 0.05 in Rain Light Rain
1:05 AM 39.2 °F 30.2 °F 33.8 °F 81% 29.45 in 8.0 mi ESE 17.3 mph 27.6 mph 0.00 in Rain Light Rain
1:53 AM 37.9 °F 29.6 °F 33.1 °F 83% 29.46 in 8.0 mi ESE 13.8 mph 25.3 mph 0.02 in Rain Light Rain
2:08 AM 37.4 °F 28.5 °F 33.8 °F 87% 29.46 in 6.0 mi ESE 15.0 mph 25.3 mph 0.00 in Rain Light Rain
2:53 AM 37.0 °F 29.3 °F 34.0 °F 89% 29.46 in 5.0 mi ESE 11.5 mph 20.7 mph 0.03 in Rain Light Rain
3:53 AM 37.9 °F 29.6 °F 33.1 °F 83% 29.44 in 10.0 mi ESE 13.8 mph 19.6 mph 0.00 in   Overcast
4:53 AM 37.9 °F 35.5 °F 33.1 °F 83% 29.42 in 10.0 mi SSE 3.5 mph - N/A   Overcast
5:53 AM 37.9 °F 35.5 °F 33.1 °F 83% 29.40 in 10.0 mi SSE 3.5 mph - 0.00 in   Overcast
6:20 AM 37.4 °F - 32.0 °F 81% 29.40 in 10.0 mi Calm Calm - 0.00 in Rain Light Rain
6:30 AM 37.4 °F 34.9 °F 33.8 °F 87% 29.39 in 9.0 mi ENE 3.5 mph - 0.01 in Rain Light Rain
6:53 AM 37.0 °F 33.3 °F 33.1 °F 86% 29.39 in 10.0 mi East 4.6 mph - 0.02 in Rain Light Rain
7:53 AM 37.0 °F - 33.1 °F 86% 29.38 in 9.0 mi Calm Calm - 0.00 in Rain Light Rain
8:53 AM 37.0 °F 34.5 °F 34.0 °F 89% 29.37 in 9.0 mi ENE 3.5 mph - 0.04 in Rain Light Rain
9:53 AM 37.0 °F 31.6 °F 34.0 °F 89% 29.37 in 10.0 mi East 6.9 mph - 0.04 in Rain Light Rain
10:53 AM 36.0 °F 30.3 °F 34.0 °F 93% 29.38 in 7.0 mi East 6.9 mph - 0.02 in Rain Light Rain
11:53 AM 37.9 °F 30.9 °F 34.0 °F 86% 29.38 in 10.0 mi ESE 10.4 mph 17.3 mph 0.04 in   Overcast
12:53 PM 37.9 °F 30.9 °F 34.0 °F 86% 29.39 in 10.0 mi East 10.4 mph - 0.00 in   Overcast
1:53 PM 37.0 °F 29.8 °F 33.1 °F 86% 29.40 in 5.0 mi ESE 10.4 mph - 0.06 in Rain Light Rain
2:53 PM 36.0 °F 30.3 °F 33.1 °F 89% 29.42 in 4.0 mi East 6.9 mph 19.6 mph 0.06 in Rain Rain
3:46 PM 35.6 °F 29.9 °F 33.8 °F 93% 29.43 in 4.0 mi ESE 6.9 mph - 0.10 in Rain Rain
3:53 PM 35.1 °F 27.9 °F 33.1 °F 92% 29.43 in 5.0 mi East 9.2 mph - 0.10 in Rain Light Rain
4:53 PM 34.0 °F 27.2 °F 32.0 °F 92% 29.45 in 3.0 mi East 8.1 mph - 0.10 in Rain Light Rain
5:53 PM 36.0 °F 32.1 °F 33.1 °F 89% 29.47 in 6.0 mi ESE 4.6 mph - 0.09 in Rain Light Rain
6:53 PM 37.0 °F 31.6 °F 34.0 °F 89% 29.50 in 6.0 mi SE 6.9 mph - 0.02 in Rain Light Rain
7:53 PM 37.9 °F 32.1 °F 34.0 °F 86% 29.52 in 10.0 mi ESE 8.1 mph - 0.00 in   Overcast
8:53 PM 37.9 °F 30.0 °F 34.0 °F 86% 29.54 in 10.0 mi ESE 12.7 mph - 0.01 in Rain Light Rain
9:45 PM 35.6 °F 29.9 °F 33.8 °F 93% 29.58 in 6.0 mi SE 6.9 mph 17.3 mph 0.05 in Rain Rain
9:53 PM 36.0 °F 31.1 °F 33.1 °F 89% 29.58 in 9.0 mi SE 5.8 mph - 0.06 in Rain Light Rain
10:00 PM 35.6 °F 30.7 °F 33.8 °F 93% 29.58 in 9.0 mi East 5.8 mph - 0.00 in Rain Light Rain
10:22 PM 35.6 °F 29.2 °F 33.8 °F 93% 29.59 in 5.0 mi South 8.1 mph - 0.02 in Rain , Snow Light Rain
10:53 PM 36.0 °F 33.3 °F 33.1 °F 89% 29.60 in 6.0 mi ESE 3.5 mph - 0.07 in Rain Light Rain
11:45 PM 37.4 °F 31.4 °F 33.8 °F 87% 29.61 in 6.0 mi ESE 8.1 mph - 0.06 in Rain Light Rain
11:53 PM 37.0 °F 31.0 °F 33.1 °F 86% 29.62 in 7.0 mi ESE 8.1 mph - 0.07 in Rain Light Rain